Weather History for Miami, FL

Change the Weather History Date:

Monday, November 19, 2012

  Actual Average Record
Temperature  
Mean Temperature 69 °F 74 °F  
Max Temperature 76 °F 81 °F 89 °F (1986)
Min Temperature 62 °F 68 °F 44 °F (1951)
Degree Days  
Heating Degree Days 0 0  
Month to date heating degree days 1 0  
Since 1 July heating degree days 1 0  
Cooling Degree Days 4 9  
Month to date cooling degree days 149 205  
Year to date cooling degree days 4388 4277  
Growing Degree Days 18 (Base 50)    
Moisture  
Dew Point 58 °F    
Average Humidity 71    
Maximum Humidity 93    
Minimum Humidity 49    
Precipitation  
Precipitation 0.00 in 0.09 in 6.78 in (1959)
Month to date precipitation 0.24 2.32  
Year to date precipitation 86.17 58.91  
Snow  
Snow 0.00 in - - ()
Month to date snowfall 0.0  
Since 1 July snowfall 0.0  
Since 1 September snowfall 0.0  
Snow Depth 0.00 in    
Sea Level Pressure  
Sea Level Pressure 30.08 in    
Wind  
Wind Speed 7 mph (NNW)    
Max Wind Speed 14 mph    
Max Gust Speed 18 mph    
Visibility 10 miles    
Events      
T = Trace of Precipitation, MM = Missing Value Source: NWS Daily Summary

Daily Weather History Graph

Daily Weather History Graph

Search for Another Location

Airport:

Trip Planner

Search our weather history database for the weather conditions in past years. The results will help you decide how hot, cold, wet, or windy it might be!

Date:

Astronomy

Nov. 19, 2012 Rise Set
Actual Time 6:42 AM EST 5:30 PM EST
Civil Twilight 6:17 AM EST 5:55 PM EST
Nautical Twilight 5:49 AM EST 6:23 PM EST
Astronomical Twilight 5:22 AM EST 6:50 PM EST
Moon 11:57 AM EST (11/19) 11:40 PM EST (11/19)
Length of Visible Light 11h 37m
Length of Day
10h 48m
Waxing Crescent, 40% of the Moon is Illuminated
Nov 19
Waxing Crescent
Nov 20
First Quarter
Nov 28
Full
Dec 6
Last Quarter
Dec 13
New

Hourly Weather History & Observations

Time (EST) Temp. Dew Point Humidity Pressure Visibility Wind Dir Wind Speed Gust Speed Precip Events Conditions
12:53 AM 68.0 °F 63.0 °F 84% 30.10 in 10.0 mi NNW 9.2 mph - N/A   Overcast
1:53 AM 66.9 °F 63.0 °F 87% 30.09 in 10.0 mi North 5.8 mph - N/A   Mostly Cloudy
2:10 AM 66.2 °F 62.6 °F 88% 30.09 in 10.0 mi Variable 5.8 mph - N/A   Scattered Clouds
2:53 AM 64.9 °F 62.1 °F 90% 30.09 in 10.0 mi NNW 4.6 mph - N/A   Mostly Cloudy
3:53 AM 64.9 °F 61.0 °F 87% 30.09 in 10.0 mi Variable 5.8 mph - N/A   Mostly Cloudy
4:53 AM 64.0 °F 60.1 °F 87% 30.09 in 10.0 mi NNW 5.8 mph - N/A   Clear
5:53 AM 64.0 °F 59.0 °F 84% 30.11 in 10.0 mi Variable 4.6 mph - N/A   Partly Cloudy
6:53 AM 63.0 °F 59.0 °F 87% 30.12 in 10.0 mi NNW 4.6 mph - N/A   Scattered Clouds
7:53 AM 64.9 °F 59.0 °F 81% 30.12 in 10.0 mi Variable 5.8 mph - N/A   Partly Cloudy
8:53 AM 66.9 °F 55.9 °F 68% 30.13 in 10.0 mi North 8.1 mph - N/A   Partly Cloudy
9:53 AM 71.1 °F 55.0 °F 57% 30.14 in 10.0 mi NW 6.9 mph - N/A   Partly Cloudy
10:53 AM 72.0 °F 54.0 °F 53% 30.13 in 10.0 mi Variable 5.8 mph - N/A   Partly Cloudy
11:53 AM 71.1 °F 55.0 °F 57% 30.11 in 10.0 mi NW 10.4 mph 16.1 mph N/A   Partly Cloudy
12:53 PM 73.0 °F 54.0 °F 51% 30.07 in 10.0 mi WNW 10.4 mph 16.1 mph N/A   Partly Cloudy
1:53 PM 75.2 °F 55.4 °F 50% 30.04 in 10.0 mi Variable 5.8 mph - N/A   Partly Cloudy
2:53 PM 75.0 °F 57.0 °F 53% 30.02 in 10.0 mi NW 10.4 mph 16.1 mph N/A   Partly Cloudy
3:53 PM 73.9 °F 57.9 °F 57% 30.02 in 10.0 mi NNW 9.2 mph - N/A   Partly Cloudy
4:53 PM 71.1 °F 57.0 °F 61% 30.03 in 10.0 mi NNW 6.9 mph - N/A   Partly Cloudy
5:53 PM 66.9 °F 57.0 °F 70% 30.04 in 10.0 mi Variable 6.9 mph - N/A   Clear
6:53 PM 64.9 °F 57.0 °F 75% 30.06 in 10.0 mi NNW 9.2 mph - N/A   Clear
7:53 PM 64.0 °F 57.0 °F 78% 30.07 in 10.0 mi NNW 9.2 mph - N/A   Partly Cloudy
8:53 PM 63.0 °F 55.9 °F 78% 30.08 in 10.0 mi North 8.1 mph - N/A   Scattered Clouds
9:10 PM 62.6 °F 55.4 °F 77% 30.07 in 10.0 mi Variable 6.9 mph - N/A   Mostly Cloudy
9:53 PM 62.6 °F 55.4 °F 77% 30.07 in 10.0 mi North 6.9 mph - N/A   Overcast
10:53 PM 63.0 °F 55.9 °F 78% 30.06 in 10.0 mi North 5.8 mph - N/A   Overcast
11:50 PM 62.6 °F 55.4 °F 77% 30.05 in 10.0 mi NW 6.9 mph - N/A   Overcast
11:53 PM 63.0 °F 55.9 °F 78% 30.05 in 10.0 mi NW 6.9 mph - N/A   Overcast